Location: Butler
(32.5575°N, 84.2380°W)
Time: 05:34:57
(UTC+00:00)

N. Korean satellite - Pass Details

Date: 05 December 2021
Orbit: 447 x 491 km, 97.3° (Epoch: 22 January)

Event Time Altitude Azimuth Distance (km) Brightness Sun altitude
Rises 10:39:19 0° 14° (NNE) 2,451 10.1 -21.6°
Reaches altitude 10° 10:41:21 10° 16° (NNE) 1,575 9.2 -21.2°
Maximum altitude 10:44:42 70° 100° (E) 478 6.6 -20.5°
Drops below altitude 10° 10:48:03 10° 185° (S) 1,568 9.2 -19.8°
Sets 10:50:05 0° 188° (S) 2,439 10.2 -19.4°
